| time (UTC) | temp C | wind direction | speed KPH | gust KPH | rain 1hr cm | rain 24hr cm | rain mn cm | humidity % | barometer mb |
| 20260506011515 | 8 | 0.0 | 1.6 | 0.00 | 0.00 | 0.00 | 76 | 1015.7 | |
| 20260506010515 | 8 | 0.0 | 1.6 | 0.00 | 0.00 | 0.00 | 76 | 1015.8 | |
| 20260506005535 | 8 | 0.0 | 3.2 | 0.00 | 0.00 | 0.00 | 77 | 1015.8 | |
| 20260506004535 | 8 | 68 | 1.6 | 4.8 | 0.00 | 0.00 | 0.00 | 77 | 1015.7 |
| 20260506003515 | 8 | 0.0 | 0.0 | 0.00 | 0.00 | 0.00 | 77 | 1015.8 | |
| 20260506002515 | 8 | 0.0 | 1.6 | 0.00 | 0.00 | 0.00 | 77 | 1015.8 | |
| 20260506001515 | 8 | 0.0 | 0.0 | 0.00 | 0.00 | 0.00 | 76 | 1015.9 | |
| 20260506000515 | 8 | 0.0 | 1.6 | 0.00 | 0.00 | 0.00 | 76 | 1015.8 | |
| 20260505235517 | 8 | 0.0 | 3.2 | 0.00 | 0.00 | 0.00 | 76 | 1015.7 | |
| 20260505234517 | 8 | 0.0 | 4.8 | 0.00 | 0.00 | 0.00 | 76 | 1015.7 | |
| 20260505233517 | 8 | 90 | 1.6 | 6.4 | 0.00 | 0.00 | 0.00 | 76 | 1015.8 |
| 20260505232517 | 8 | 0.0 | 3.2 | 0.00 | 0.00 | 0.00 | 75 | 1015.7 | |
| 20260505231517 | 9 | 0.0 | 4.8 | 0.00 | 0.00 | 0.00 | 75 | 1015.8 | |
| 20260505230517 | 9 | 0.0 | 1.6 | 0.00 | 0.00 | 0.00 | 74 | 1015.8 | |
| 20260505225517 | 9 | 90 | 1.6 | 4.8 | 0.00 | 0.00 | 0.00 | 74 | 1015.8 |
| 20260505224517 | 9 | 45 | 1.6 | 6.4 | 0.00 | 0.00 | 0.00 | 74 | 1015.7 |
| 20260505223517 | 9 | 45 | 1.6 | 6.4 | 0.00 | 0.00 | 0.00 | 74 | 1015.7 |
| 20260505222517 | 9 | 68 | 1.6 | 4.8 | 0.00 | 0.00 | 0.00 | 74 | 1015.8 |
| 20260505221517 | 9 | 90 | 1.6 | 6.4 | 0.00 | 0.00 | 0.00 | 74 | 1015.7 |
| 20260505220517 | 9 | 45 | 1.6 | 6.4 | 0.00 | 0.00 | 0.00 | 75 | 1015.6 |
| 20260505215517 | 10 | 0 | 1.6 | 3.2 | 0.00 | 0.00 | 0.00 | 76 | 1015.7 |
| 20260505214517 | 10 | 68 | 3.2 | 9.7 | 0.00 | 0.00 | 0.00 | 77 | 1015.6 |
| 20260505213537 | 10 | 90 | 1.6 | 4.8 | 0.00 | 0.00 | 0.00 | 77 | 1015.5 |
| 20260505212517 | 10 | 0 | 1.6 | 9.7 | 0.00 | 0.00 | 0.00 | 77 | 1015.5 |
| 20260505211537 | 10 | 68 | 1.6 | 8.0 | 0.00 | 0.00 | 0.00 | 76 | 1015.4 |
| 20260505210517 | 10 | 45 | 1.6 | 4.8 | 0.00 | 0.00 | 0.00 | 75 | 1015.5 |
| 20260505205537 | 10 | 68 | 3.2 | 6.4 | 0.00 | 0.00 | 0.00 | 76 | 1015.4 |
| 20260505204517 | 10 | 0 | 3.2 | 6.4 | 0.00 | 0.00 | 0.00 | 76 | 1015.2 |
| 20260505203517 | 10 | 315 | 3.2 | 8.0 | 0.00 | 0.00 | 0.00 | 75 | 1015.2 |
| 20260505202517 | 10 | 315 | 1.6 | 6.4 | 0.00 | 0.00 | 0.00 | 74 | 1015.3 |
| 20260505201517 | 10 | 338 | 1.6 | 4.8 | 0.00 | 0.00 | 0.00 | 73 | 1015.2 |
| 20260505200517 | 10 | 293 | 1.6 | 6.4 | 0.00 | 0.00 | 0.00 | 73 | 1015.2 |
| 20260505195517 | 10 | 315 | 1.6 | 8.0 | 0.00 | 0.00 | 0.00 | 73 | 1015.1 |
| 20260505194517 | 11 | 315 | 3.2 | 8.0 | 0.00 | 0.00 | 0.00 | 72 | 1015.0 |
| 20260505193517 | 11 | 315 | 3.2 | 8.0 | 0.00 | 0.00 | 0.00 | 72 | 1014.8 |
| 20260505192537 | 11 | 315 | 3.2 | 8.0 | 0.00 | 0.00 | 0.00 | 72 | 1014.8 |
| 20260505191517 | 11 | 315 | 3.2 | 9.7 | 0.00 | 0.00 | 0.00 | 72 | 1014.6 |
| 20260505190517 | 11 | 315 | 3.2 | 9.7 | 0.00 | 0.00 | 0.00 | 72 | 1014.6 |
| 20260505185517 | 11 | 315 | 4.8 | 9.7 | 0.00 | 0.00 | 0.00 | 71 | 1014.7 |
| 20260505184537 | 11 | 315 | 4.8 | 12.9 | 0.00 | 0.00 | 0.00 | 73 | 1014.7 |
| 20260505183517 | 11 | 315 | 3.2 | 8.0 | 0.00 | 0.00 | 0.00 | 74 | 1014.7 |
| 20260505182537 | 11 | 338 | 4.8 | 12.9 | 0.00 | 0.00 | 0.00 | 72 | 1014.7 |
| 20260505181537 | 11 | 315 | 4.8 | 11.3 | 0.00 | 0.00 | 0.00 | 71 | 1014.6 |
| 20260505180516 | 11 | 338 | 4.8 | 9.7 | 0.00 | 0.00 | 0.00 | 68 | 1014.6 |
| 20260505175517 | 12 | 315 | 4.8 | 14.5 | 0.00 | 0.00 | 0.00 | 66 | 1014.5 |
| 20260505174516 | 12 | 293 | 6.4 | 14.5 | 0.00 | 0.00 | 0.00 | 64 | 1014.5 |
| 20260505173517 | 12 | 315 | 4.8 | 14.5 | 0.00 | 0.00 | 0.00 | 65 | 1014.4 |
| 20260505172516 | 12 | 338 | 6.4 | 16.1 | 0.00 | 0.00 | 0.00 | 69 | 1014.4 |
| 20260505171516 | 12 | 338 | 6.4 | 14.5 | 0.00 | 0.00 | 0.00 | 66 | 1014.6 |
| 20260505170517 | 12 | 315 | 3.2 | 8.0 | 0.00 | 0.00 | 0.00 | 65 | 1014.7 |
| 20260505165537 | 12 | 315 | 6.4 | 14.5 | 0.00 | 0.00 | 0.00 | 65 | 1014.6 |
| 20260505164516 | 12 | 315 | 3.2 | 8.0 | 0.00 | 0.00 | 0.00 | 71 | 1014.6 |
| 20260505163516 | 12 | 315 | 6.4 | 12.9 | 0.00 | 0.00 | 0.00 | 71 | 1014.6 |
| 20260505162517 | 12 | 315 | 6.4 | 11.3 | 0.00 | 0.00 | 0.00 | 71 | 1014.7 |
| 20260505161517 | 13 | 315 | 4.8 | 12.9 | 0.00 | 0.00 | 0.00 | 71 | 1014.6 |
| 20260505160516 | 12 | 293 | 3.2 | 12.9 | 0.00 | 0.00 | 0.00 | 71 | 1014.5 |
| 20260505152516 | 12 | 315 | 3.2 | 14.5 | 0.00 | 0.00 | 0.00 | 72 | 1014.5 |
| 20260505151537 | 11 | 315 | 4.8 | 11.3 | 0.00 | 0.00 | 0.00 | 74 | 1014.7 |
| 20260505150516 | 11 | 315 | 6.4 | 14.5 | 0.00 | 0.00 | 0.00 | 74 | 1014.8 |
| 20260505140536 | 13 | 315 | 6.4 | 12.9 | 0.00 | 0.00 | 0.00 | 66 | 1014.9 |
| 20260505124516 | 12 | 338 | 8.0 | 16.1 | 0.00 | 0.00 | 0.00 | 69 | 1014.9 |
| 20260505123516 | 12 | 293 | 8.0 | 17.7 | 0.00 | 0.00 | 0.00 | 68 | 1014.7 |
| 20260505122516 | 13 | 315 | 6.4 | 16.1 | 0.00 | 0.00 | 0.00 | 62 | 1014.7 |
| 20260505121516 | 13 | 315 | 6.4 | 17.7 | 0.00 | 0.00 | 0.00 | 62 | 1014.7 |
| 20260505120516 | 12 | 293 | 4.8 | 14.5 | 0.00 | 0.00 | 0.00 | 64 | 1014.8 |
| 20260505115516 | 12 | 338 | 8.0 | 17.7 | 0.00 | 0.00 | 0.00 | 68 | 1014.8 |
| 20260505114536 | 12 | 315 | 6.4 | 14.5 | 0.00 | 0.00 | 0.00 | 68 | 1014.8 |
| 20260505113516 | 12 | 338 | 6.4 | 16.1 | 0.00 | 0.00 | 0.00 | 69 | 1015.0 |
| 20260505112516 | 11 | 315 | 4.8 | 11.3 | 0.00 | 0.00 | 0.00 | 70 | 1015.2 |
| 20260505111516 | 11 | 315 | 3.2 | 8.0 | 0.00 | 0.00 | 0.00 | 72 | 1015.2 |
| 20260505110516 | 11 | 315 | 4.8 | 12.9 | 0.00 | 0.00 | 0.00 | 74 | 1015.2 |
| 20260505101516 | 11 | 315 | 4.8 | 12.9 | 0.00 | 0.00 | 0.00 | 72 | 1015.1 |
| 20260505100516 | 11 | 315 | 4.8 | 12.9 | 0.00 | 0.00 | 0.00 | 73 | 1015.3 |
| 20260505095516 | 11 | 315 | 4.8 | 16.1 | 0.00 | 0.00 | 0.00 | 75 | 1015.3 |
| 20260505094516 | 11 | 315 | 4.8 | 12.9 | 0.00 | 0.00 | 0.00 | 76 | 1015.2 |
| 20260505093516 | 11 | 315 | 6.4 | 11.3 | 0.00 | 0.00 | 0.00 | 77 | 1015.4 |
| 20260505092516 | 11 | 315 | 3.2 | 9.7 | 0.00 | 0.00 | 0.00 | 79 | 1015.4 |
| 20260505091516 | 11 | 315 | 3.2 | 8.0 | 0.00 | 0.00 | 0.00 | 80 | 1015.2 |
| 20260505090516 | 11 | 315 | 3.2 | 11.3 | 0.00 | 0.00 | 0.00 | 81 | 1015.3 |
| 20260505085516 | 11 | 315 | 4.8 | 9.7 | 0.00 | 0.00 | 0.00 | 81 | 1015.3 |
| 20260505084516 | 11 | 315 | 3.2 | 8.0 | 0.00 | 0.00 | 0.00 | 83 | 1015.2 |
| 20260505083516 | 11 | 315 | 1.6 | 8.0 | 0.00 | 0.00 | 0.00 | 84 | 1015.3 |
| 20260505082516 | 10 | 338 | 3.2 | 8.0 | 0.00 | 0.00 | 0.00 | 84 | 1015.3 |
| 20260505081516 | 10 | 315 | 3.2 | 8.0 | 0.00 | 0.00 | 0.00 | 84 | 1015.4 |
| 20260505080516 | 10 | 315 | 3.2 | 6.4 | 0.00 | 0.00 | 0.00 | 81 | 1015.4 |
| 20260505075516 | 10 | 315 | 1.6 | 6.4 | 0.00 | 0.00 | 0.00 | 83 | 1015.2 |
| 20260505074516 | 10 | 338 | 1.6 | 6.4 | 0.00 | 0.00 | 0.00 | 86 | 1015.4 |
| 20260505073515 | 10 | 315 | 1.6 | 4.8 | 0.00 | 0.00 | 0.00 | 87 | 1015.4 |
| 20260505072516 | 10 | 293 | 1.6 | 8.0 | 0.00 | 0.00 | 0.00 | 87 | 1015.4 |
| 20260505071515 | 10 | 315 | 1.6 | 4.8 | 0.00 | 0.00 | 0.00 | 87 | 1015.3 |
| 20260505070516 | 10 | 0.0 | 3.2 | 0.00 | 0.00 | 0.00 | 88 | 1015.3 | |
| 20260505065516 | 9 | 0.0 | 3.2 | 0.00 | 0.00 | 0.00 | 88 | 1015.4 | |
| 20260505064535 | 9 | 0.0 | 3.2 | 0.00 | 0.00 | 0.00 | 89 | 1015.5 | |
| 20260505063515 | 8 | 0.0 | 0.0 | 0.00 | 0.00 | 0.00 | 90 | 1015.6 | |
| 20260505062515 | 8 | 0.0 | 0.0 | 0.00 | 0.00 | 0.00 | 91 | 1015.6 | |
| 20260505061516 | 7 | 0.0 | 0.0 | 0.00 | 0.00 | 0.00 | 92 | 1015.6 | |
| 20260505060516 | 7 | 0.0 | 0.0 | 0.00 | 0.00 | 0.00 | 91 | 1015.6 | |
| 20260505055555 | 7 | 0.0 | 0.0 | 0.00 | 0.00 | 0.00 | 91 | 1015.6 | |
| 20260505054515 | 7 | 0.0 | 0.0 | 0.00 | 0.00 | 0.00 | 93 | 1015.5 | |
| 20260505053515 | 6 | 0.0 | 0.0 | 0.00 | 0.00 | 0.00 | 94 | 1015.6 | |
| 20260505052515 | 5 | 0.0 | 0.0 | 0.00 | 0.00 | 0.00 | 94 | 1015.6 | |
| 20260505051515 | 4 | 0.0 | 0.0 | 0.00 | 0.00 | 0.00 | 93 | 1015.4 | |
| 20260505050515 | 4 | 0.0 | 0.0 | 0.00 | 0.00 | 0.00 | 93 | 1015.4 | |
| 20260505041515 | 6 | 0.0 | 0.0 | 0.00 | 0.00 | 0.00 | 92 | 1015.2 | |
| 20260505040535 | 6 | 0.0 | 0.0 | 0.00 | 0.00 | 0.00 | 92 | 1015.1 | |
| 20260505035515 | 6 | 0.0 | 0.0 | 0.00 | 0.00 | 0.00 | 91 | 1015.1 | |
| 20260505034515 | 6 | 0.0 | 0.0 | 0.00 | 0.00 | 0.00 | 91 | 1015.1 | |
| 20260505033515 | 6 | 0.0 | 0.0 | 0.00 | 0.00 | 0.00 | 91 | 1015.1 | |
| 20260505032515 | 6 | 0.0 | 1.6 | 0.00 | 0.00 | 0.00 | 91 | 1015.1 | |
| 20260505031515 | 6 | 0.0 | 4.8 | 0.00 | 0.00 | 0.00 | 92 | 1015.0 | |
| 20260505030515 | 6 | 0.0 | 1.6 | 0.00 | 0.00 | 0.00 | 93 | 1015.0 | |
| 20260505025515 | 6 | 0.0 | 1.6 | 0.00 | 0.00 | 0.00 | 94 | 1015.0 | |
| 20260505024515 | 6 | 0.0 | 0.0 | 0.00 | 0.00 | 0.00 | 94 | 1015.1 | |
| 20260505023515 | 5 | 0.0 | 0.0 | 0.00 | 0.00 | 0.00 | 94 | 1015.2 | |
| 20260505022515 | 5 | 0.0 | 0.0 | 0.00 | 0.00 | 0.00 | 93 | 1015.2 | |
| 20260505021517 | 5 | 0.0 | 0.0 | 0.00 | 0.00 | 0.00 | 92 | 1015.3 | |
| 20260505020537 | 5 | 0.0 | 0.0 | 0.00 | 0.00 | 0.00 | 92 | 1015.3 | |
| 20260505015517 | 6 | 0.0 | 0.0 | 0.00 | 0.00 | 0.00 | 92 | 1015.4 | |
| 20260505014517 | 6 | 0.0 | 0.0 | 0.00 | 0.00 | 0.00 | 91 | 1015.4 | |
| 20260505013537 | 6 | 0.0 | 0.0 | 0.00 | 0.00 | 0.00 | 91 | 1015.6 | |
| 20260505012517 | 6 | 0.0 | 0.0 | 0.00 | 0.00 | 0.00 | 91 | 1015.7 |